Regional Weather Roundup
Issued by NWS Portland, ME

Current Version | Previous Version | Text Only | Print | Product List | Glossary On
Versions: 1 2 3 4 5 6 7 8 9 10 11 12 13 14 15 16 17 18 19 20 21 22 23 24 25 26 27 28 29 30 31 32 33 34 35 36 37 38 39 40 41 42 43 44 45 46 47 48 49 50
000
ASUS41 KGYX 112310
RWRGYX
WEATHER ROUNDUP FOR MAINE AND NEW HAMPSHIRE
NATIONAL WEATHER SERVICE GRAY ME
600 PM EST TUE DEC 11 2018

MEZ002-005-006-010-012-015-018-020-021-024-026-027-029-120000-
MAINE

CITY           SKY/WX    TMP DP  RH WIND       PRES   REMARKS
PORTLAND       FAIR      25  18  74 NW5       29.97F
SANFORD        FAIR      19  16  88 CALM      29.97F
BAR HARBOR     CLOUDY    26  18  71 E6        30.01F
WISCASSET      CLOUDY    27  25  92 VRB3      29.99S
ROCKLAND       CLOUDY    30  25  81 NE7       29.98F
FRYEBURG       FAIR      12   9  87 CALM      29.97S
LEWISTONAUBURN FAIR      17  11  77 N5        29.97F
AUGUSTA        CLOUDY    21  11  65 N7        29.98F
WATERVILLE     FLURRIES  19  11  70 MISG      29.95F
BANGOR         FAIR      20  10  65 N8        30.00F
GREENVILLE       N/A      8   3  80 E5        29.89F
MILLINOCKET    FAIR       9   3  77 E3        30.01F
HOULTON        FAIR       1  -3  83 CALM      29.99S
PRESQUE ISLE   FAIR      -2  -7  79 CALM      30.01R
FRENCHVILLE    CLOUDY    12   2  64 W3        29.95R
CARIBOU        MOCLDY     4  -1  80 CALM      29.99R
$$

NHZ002-005-008-009-011-012-014-120000-
NEW HAMPSHIRE

CITY           SKY/WX    TMP DP  RH WIND       PRES   REMARKS
PORTSMOUTH     CLEAR     25  13  60 CALM      29.96S
ROCHESTER      FAIR      27  14  58 NW3       29.95F
NASHUA         FAIR      24  19  81 NW3       29.97S
MANCHESTER     FAIR      27  15  61 CALM      29.95F
CONCORD        FAIR      23  14  68 CALM      29.96F
LACONIA        FAIR      17  10  74 CALM      29.96S
PLYMOUTH       FAIR      17  14  88 CALM      29.97R
BERLIN         CLOUDY    13   8  81 CALM      29.92S
WHITEFIELD     MOCLDY    15   9  76 CALM      29.92F
JAFFREY        CLOUDY    26  20  77 CALM      29.92F
KEENE          CLOUDY    26  18  71 CALM      29.96S
LEBANON        MOCLDY    21  12  68 CALM      29.95F
MT WASHINGTON  FOG        3   3 100 NW5         N/A  VSB 1/16
$$

VTZ005-007-008-120000-
VERMONT

CITY           SKY/WX    TMP DP  RH WIND       PRES   REMARKS
ST JOHNSBURY     N/A     16  10  77 MISG      29.95R
MONTPELIER     MOCLDY    16  11  80 CALM      29.95S
BURLINGTON     CLOUDY    28  17  63 S6        29.96S
$$

MAZ007-012-024-CTZ003-RIZ002-NYZ038-NYZ072-120000-
SOUTHERN NEW ENGLAND AND NY

CITY           SKY/WX    TMP DP  RH WIND       PRES   REMARKS
BOSTON         FAIR      33  20  58 S9        29.98S
WORCESTER      FAIR      28  16  60 W3        29.92S
NANTUCKET      FAIR      29  22  75 NE5       29.97F
PROVIDENCE     CLOUDY    34  25  69 CALM      29.98S
HARTFORD       FAIR      28  18  66 CALM      29.95F
ALBANY         FLURRIES  29  17  61 NW6       30.00R
NEW YORK CITY  FAIR      38  28  67 S10       29.96S
$$

ANZ081-ANZ082-ANZ150-NHZ014-MEZ023>029-120000-
COASTAL MARINE OBSERVATIONS

STATION/POSITION TIME  TEMP    WIND        PRES    WAVE
                       AIR SEA DIR/SP/G            HT/PER
                 (UTC) (F)     (DEG/KT/KT) (MB)    (FT/S)
MOUNT DESERT ROC 2300   33     170/  8/ 12 1016.3R
MATINICUS ROCK   2200   33     170/  9/ 12 1014.5F
ISLE OF SHOALS   2200   34     260/  9/ 11 1014.9F
JEFFREYS LEDGE   2238      46                N/A     4/10
$$

.............KEY..............
   WCI - WIND CHILL
   TC  - TEMPERATURE IN CELSIUS
   VSB - VISIBILITY IN MILES
   HX  - HEAT INDEX
   FAIR- INDICATES FEW OR NO CLOUDS BELOW 12,000 FT, WITH NO
         SIGNIFICANT WEATHER AND/OR OBSTRUCTIONS TO VISIBILITY.





USA.gov is the U.S. government's official web portal to all federal, state and local government web resources and services.